Location: Belfast
(54.5830°N, 5.9330°W)
Time: 17:28:35
(UTC+01:00)

ISS - Visible Passes

Search period start: 27 July 2017 00:00
Search period end: 06 August 2017 00:00
Orbit: 400 x 408 km, 51.6° (Epoch: 28 July)

Date Brightness Start Highest point End Pass type
(mag) Time Alt. Az. Time Alt. Az. Time Alt. Az.
27 Jul -3.7 00:33:16 10° WSW 00:36:27 50° S 00:37:53 27° ESE visible
27 Jul -1.7 02:09:42 10° W 02:10:29 15° WSW 02:10:29 15° WSW visible
27 Jul -3.7 23:41:04 10° WSW 23:44:15 50° S 23:46:58 13° ESE visible
28 Jul -2.8 01:17:23 10° W 01:19:34 30° SW 01:19:34 30° SW visible
28 Jul -3.5 22:48:53 10° WSW 22:52:01 45° S 22:55:10 10° E visible
29 Jul -3.5 00:25:06 10° W 00:28:14 44° S 00:28:46 40° SSE visible
29 Jul -3.6 23:32:51 10° W 23:36:00 49° S 23:38:01 20° ESE visible
30 Jul -2.0 01:09:19 10° W 01:10:37 19° WSW 01:10:37 19° WSW visible
30 Jul -3.6 22:40:35 10° WSW 22:43:45 50° S 22:46:56 10° ESE visible
31 Jul -3.1 00:16:56 10° W 00:19:55 34° SSW 00:19:55 34° SSW visible
31 Jul -3.4 23:24:36 10° W 23:27:42 42° SSW 23:29:12 24° SE visible
01 Aug -1.3 01:01:24 10° WSW 01:01:50 12° WSW 01:01:50 12° WSW visible
01 Aug -3.5 22:32:17 10° W 22:35:26 48° S 22:38:31 11° ESE visible
02 Aug -2.4 00:08:49 10° W 00:11:08 23° SW 00:11:08 23° SW visible
02 Aug -2.9 23:16:21 10° W 23:19:18 31° SSW 23:20:28 24° SSE visible
03 Aug -3.2 22:23:59 10° W 22:27:03 39° SSW 22:29:49 12° SE visible
04 Aug -1.7 00:00:57 10° WSW 00:02:26 15° SW 00:02:26 15° SW visible
04 Aug -2.2 23:08:13 10° W 23:10:47 21° SSW 23:11:48 18° S visible
05 Aug -2.6 22:15:42 10° W 22:18:33 28° SSW 22:21:11 11° SE visible
